Retour au catalogue

TRAAC DEB

ActifLEO
NORAD 10796·DEBRIS·🇺🇸 United States

Lancé Nov 15, 1961 depuis Cape Canaveral Space Force Station

Loading…

Prochains Passages (prochaines 24 heures)

TLE

FraisSource: Space-Track

Époque: Sep 14, 2026, 15:45 UTC

1 10796U 61031D   26257.65642419  .00000044  00000-0  28688-4 0  9997
2 10796  32.4427  11.8428 0101440  19.6853 101.6337 13.63246272232456

Suivez TRAAC DEB en temps réel avec AllMySat

Download on the App Store